Location: Newark
(33.4453°N, 112.0669°W)
Time: 13:08:53
(UTC+00:00)

LightSail 2 - Visible Passes

Search period start: 24 January 2020 00:00
Search period end: 03 February 2020 00:00
Orbit: 704 x 719 km, 24.0° (Epoch: 24 January)

Date Brightness Start Highest point End Pass type
(mag) Time Alt. Az. Time Alt. Az. Time Alt. Az.
24 Jan 6.7 01:42:59 10° WSW 01:47:23 28° S 01:51:47 10° ESE visible
24 Jan 7.2 03:28:29 10° WSW 03:31:11 20° SSW 03:31:11 20° SSW visible
25 Jan 6.9 02:29:55 10° WSW 02:34:03 24° S 02:36:32 17° SSE visible
26 Jan 6.9 01:31:26 10° WSW 01:35:44 27° S 01:40:01 10° SE visible
26 Jan 7.3 03:17:30 10° SW 03:20:39 16° SSW 03:20:53 16° SSW visible
27 Jan 7.3 02:18:41 10° WSW 02:22:20 20° SSW 02:26:00 10° SSE visible
28 Jan 7.2 01:20:02 10° WSW 01:24:01 23° S 01:28:00 10° SE visible
28 Jan 7.7 03:07:30 10° SW 03:08:51 11° SSW 03:10:13 10° S visible
29 Jan 7.6 02:07:51 10° SW 02:10:33 14° SSW 02:13:16 10° SSE visible
